Location: Cedar Brake
(32.2526°N, 97.8459°W)
Time: 17:17:02
(UTC+00:00)

USA 238 DEB - Pass Details

Date: 22 April 2026
Orbit: 883 x 1328 km, 63.4° (Epoch: 10 January)

Event Time Altitude Azimuth Distance (km) Brightness Sun altitude
Rises 02:37:01 0° 329° (NNW) 4,073 7.8 -18.8°
Reaches altitude 10° 02:39:40 10° 329° (NNW) 3,162 7.0 -19.3°
Maximum altitude 02:47:25 87° 244° (WSW) 1,290 4.0 -20.7°
Enters shadow 02:52:18 28° 154° (SSE) 2,253 4.9 -21.6°
